[[{"header":{"parameterUnit":"m.s-1","parameterCategory":1,"la1":30.2991,"la2":30.254,"lo1":-89.0895,"lo2":-89.0444,"dy":0.0017,"dx":0.0017,"nx":28,"ny":28,"refTime":"2024-06-23T21:00:00:Z","depth":0,"parameterNumber":2,"parameterNumberName":"U-component_of_WINDS"},"data":[0,0,0,0,0,0,0,0,0,0,0,0,0,0,0,0,0,0,0,0,0,0,0,0,0,0,0,0,0,0,0,0,0,0,0,0,0,0,0,0,0,0,0,0,0,0,0,0,0,0,0,0,0,0,0,0,0,0,2.1552,2.1552,0,2.1615,2.1616,2.1617,2.1531,2.1528,2.1525,2.1522,2.1593,2.1597,2.1602,0,0,0,0,0,0,0,0,0,0,0,0,0,2.1361,2.1365,2.1552,2.1552,2.1553,2.1615,2.1616,2.1617,2.1531,2.1528,2.1524,2.152,2.1591,2.1597,2.1602,0,0,0,0,0,0,0,0,0,0,0,0,0,2.1436,2.1366,2.1552,2.1518,2.1515,2.1615,2.1616,2.1617,2.1532,2.1528,2.1523,2.1519,2.1589,2.1596,2.1603,2.174,0,0,2.1625,2.1628,0,0,0,0,0,0,0,0,2.1432,2.1443,2.1522,2.152,2.1518,2.156,2.1575,2.1659,2.1533,2.1526,2.1522,2.1516,2.1586,2.1593,2.1615,2.1744,2.1747,2.1626,2.163,2.1633,2.1635,0,0,0,0,0,0,0,2.1427,2.144,2.1577,2.1523,2.1521,2.1501,2.1507,2.159,2.1582,2.1526,2.152,2.1529,2.1584,2.1609,2.1616,2.1748,2.1625,2.1632,2.1636,2.1639,2.1992,2.1996,0,0,0,0,0,0,2.1425,2.1436,2.1575,2.1579,2.1462,2.1508,2.1515,2.1551,2.158,2.158,2.1533,2.1524,2.1599,2.1608,2.1619,2.1781,2.1633,2.164,2.1644,2.1987,2.1993,2.1998,0,0,0,0,0,0,2.1421,2.1438,2.1572,2.1506,2.1521,2.1517,2.1559,2.1555,2.158,2.1585,2.1583,2.1559,2.1595,2.1609,2.171,2.1782,2.1643,2.165,2.1981,2.1988,2.1995,2.2107,0,0,0,0,0,0,2.1416,2.1437,2.1488,2.1508,2.1525,2.1662,2.1563,2.156,2.1592,2.1582,2.1609,2.161,2.1593,2.17,2.1717,2.1789,2.1655,2.1974,2.1984,2.1993,2.2097,2.2117,2.2135,0,0,0,0,0,2.141,2.1519,2.1491,2.1509,2.1589,2.1666,2.1676,2.1653,2.1598,2.165,2.1653,2.1609,2.1771,2.1711,2.173,2.1805,2.197,2.1981,2.1992,2.2088,2.2113,2.2134,0,0,0,0,0,0,2.151,2.152,2.1491,2.1609,2.1637,2.1651,2.1716,2.1681,2.1727,2.1716,2.1687,2.1694,2.1802,2.1814,2.1747,2.1939,2.1861,2.1877,2.1928,2.1952,2.197,2.1966,2.1661,0,0,0,0,0,2.1545,2.1606,2.1612,2.1716,2.1731,2.1722,2.1755,2.1734,2.1763,2.1775,2.1786,2.1817,2.1875,2.1914,2.1968,2.2098,2.2103,2.2159,2.2178,2.2193,2.2208,2.2277,2.2302,2.2036,2.2036,2.2035,0,0,2.162,2.1633,2.1674,2.1736,2.1756,2.182,2.1732,2.1805,2.1853,2.1787,2.1883,2.1892,2.1925,2.2041,2.2093,2.2054,2.2282,2.2208,2.222,2.2226,2.2291,2.2317,2.2339,2.2043,2.2042,2.2041,0,0,2.1789,2.1805,2.1892,2.1913,2.1943,2.1936,2.1957,2.1977,2.198,2.2075,2.2027,2.2085,2.2185,2.221,2.2236,2.2414,2.2375,2.2433,2.2533,2.2601,2.2622,2.264,2.2703,2.2726,2.2447,2.2447,2.2447,0,2.1878,2.1972,2.1943,2.2018,2.2047,2.1988,2.2078,2.21,2.2147,2.2169,2.2125,2.2249,2.2267,2.2388,2.2431,2.2455,2.2478,2.2429,2.262,2.2639,2.2656,2.2716,2.274,2.2454,2.2453,2.2452,2.2451,0,2.208,2.2146,2.2214,2.2258,2.2295,2.2377,2.2362,2.2403,2.2379,2.2377,2.2476,2.2495,2.2551,2.2578,2.2557,2.2697,2.2672,2.2625,2.2546,2.2688,2.2744,2.2767,2.2463,2.2461,2.2459,2.2457,0,0,2.2315,2.2341,2.2366,2.2385,2.2414,2.2465,2.2545,2.2598,2.2634,2.2669,2.2735,2.2821,2.2777,2.2807,2.2787,2.2847,2.2986,2.2792,2.2792,2.2828,2.3142,2.3177,2.3204,2.296,2.2965,2.2968,2.3139,0,2.2483,2.2619,2.2595,2.2727,2.2788,2.2733,2.2802,2.2828,2.2828,2.2881,2.2881,2.2942,2.288,2.2897,2.2954,2.2957,2.3049,2.2945,2.3023,2.3026,2.3017,2.3234,2.3271,2.3432,2.3161,2.3164,2.3167,0,2.2697,2.2738,2.2876,2.2894,2.2919,2.2981,2.3028,2.3079,2.3107,2.3103,2.3136,2.3105,2.3186,2.3105,2.3216,2.3146,2.3176,2.3183,2.3189,2.3195,2.3106,2.3246,2.3482,2.3506,2.3201,2.3199,2.3196,0,2.2854,2.2943,2.3037,2.3055,2.3079,2.3125,2.3137,2.316,2.3194,2.3235,2.3256,2.3308,2.3336,2.3376,2.3361,2.3303,2.3475,2.3393,2.3475,2.3475,2.3514,2.3511,2.3758,2.3534,2.3533,2.3533,2.3532,0,2.3045,2.3132,2.3108,2.3166,2.3262,2.3234,2.333,2.3336,2.3357,2.3416,2.3372,2.3429,2.3404,2.346,2.3448,2.3542,2.3555,2.3555,2.3551,2.3559,2.3559,2.3579,2.3567,2.3539,2.3538,2.3537,2.3535,0,2.3236,2.3224,2.3322,2.3336,2.3342,2.3412,2.3424,2.3479,2.3475,2.355,2.3567,2.3562,2.3624,2.3612,2.3682,2.3674,2.3792,2.3774,2.3782,2.3778,2.3859,2.3852,2.4127,2.4162,2.3916,2.3918,2.392,0,2.3358,2.3424,2.3444,2.3479,2.3495,2.3553,2.3586,2.3561,2.3598,2.3635,2.3685,2.3744,2.3789,2.3892,2.3896,2.3949,2.3932,2.4025,2.394,2.3946,2.3933,2.3929,2.3936,2.4042,2.4045,2.4047,2.4049,0,2.3577,2.3567,2.3616,2.3663,2.3703,2.374,2.3772,2.3804,2.3782,2.3825,2.3888,2.3923,2.3993,2.4052,2.4101,2.4115,2.4079,2.4075,2.4097,2.4106,2.4108,2.4107,2.3828,2.4069,2.4067,2.4066,2.4065,2.4064,2.3737,2.3793,2.3815,2.3871,2.3892,2.3923,2.3975,2.3977,2.4028,2.4082,2.4065,2.4136,2.4163,2.4225,2.4245,2.4301,2.4266,2.4298,2.4306,2.4314,2.4324,2.4098,2.431,2.4309,2.4309,2.4308,2.4308,0,2.3953,2.3965,2.4016,2.4062,2.4106,2.4066,2.4099,2.4139,2.4202,2.4229,2.4274,2.4347,2.4403,2.441,2.4464,2.4508,2.4493,2.4523,2.4519,2.4523,2.4352,2.4327,2.4534,2.4534,2.4534,2.4534,2.4534,2.4534,2.4071,2.4162,2.4155,2.4256,2.4267,2.4336,2.4358,2.4387,2.4408,2.449,2.4536,2.454,2.4559,2.4614,2.4664,2.4665,2.4687,2.4724,2.4718,2.4558,2.4535,2.4514,2.4491,2.4729,2.4729,2.4885,2.4886,2.4888]},{"header":{"parameterUnit":"m.s-1","parameterCategory":1,"la1":30.2991,"la2":30.254,"lo1":-89.0895,"lo2":-89.0444,"dy":0.0017,"dx":0.0017,"nx":28,"ny":28,"refTime":"2024-06-23T21:00:00:Z","depth":0,"parameterNumber":3,"parameterNumberName":"V-component_of_WINDS"},"data":[0,0,0,0,0,0,0,0,0,0,0,0,0,0,0,0,0,0,0,0,0,0,0,0,0,0,0,0,0,0,0,0,0,0,0,0,0,0,0,0,0,0,0,0,0,0,0,0,0,0,0,0,0,0,0,0,0,0,3.4897,3.4898,0,3.494,3.4941,3.4941,3.4937,3.4937,3.4936,3.4935,3.4975,3.4977,3.4979,0,0,0,0,0,0,0,0,0,0,0,0,0,3.4807,3.4808,3.4897,3.4898,3.4899,3.494,3.4941,3.4941,3.4937,3.4937,3.4936,3.4935,3.4975,3.4977,3.4979,0,0,0,0,0,0,0,0,0,0,0,0,0,3.4847,3.4809,3.4897,3.4902,3.4903,3.494,3.4941,3.4941,3.4938,3.4937,3.4936,3.4935,3.4974,3.4977,3.4979,3.5014,0,0,3.4987,3.4988,0,0,0,0,0,0,0,0,3.4845,3.4851,3.4901,3.4901,3.4902,3.4932,3.4923,3.4965,3.4938,3.4924,3.4935,3.4934,3.4962,3.4965,3.4975,3.5016,3.5017,3.4987,3.4988,3.4989,3.499,0,0,0,0,0,0,0,3.4842,3.4849,3.4914,3.4901,3.4902,3.4899,3.4904,3.4931,3.4948,3.4925,3.4925,3.493,3.4962,3.4973,3.4976,3.5018,3.4987,3.4989,3.4991,3.4992,3.5084,3.5085,0,0,0,0,0,0,3.4839,3.4846,3.4913,3.4915,3.4871,3.4902,3.4907,3.4924,3.4947,3.495,3.4931,3.493,3.4969,3.4973,3.4977,3.5016,3.4989,3.4992,3.4993,3.5083,3.5084,3.5085,0,0,0,0,0,0,3.4837,3.4845,3.4911,3.4881,3.4889,3.4905,3.4923,3.4925,3.4936,3.4952,3.4954,3.494,3.4968,3.4974,3.5004,3.5018,3.4993,3.4995,3.5082,3.5083,3.5085,3.5097,0,0,0,0,0,0,3.4835,3.4844,3.4859,3.4881,3.4891,3.4939,3.4924,3.4927,3.4941,3.494,3.496,3.4963,3.4968,3.5,3.5006,3.5021,3.4997,3.5081,3.5083,3.5084,3.5095,3.5098,3.5101,0,0,0,0,0,3.4831,3.4861,3.486,3.4868,3.491,3.494,3.4945,3.4951,3.4942,3.4956,3.4965,3.4962,3.5016,3.5003,3.501,3.5026,3.508,3.5082,3.5084,3.5094,3.5098,3.5101,0,0,0,0,0,0,3.484,3.4864,3.4864,3.4902,3.4919,3.4939,3.4957,3.4956,3.4975,3.4973,3.4979,3.4984,3.5013,3.5023,3.5009,3.5058,3.5046,3.505,3.5051,3.5055,3.5058,3.5054,3.4999,0,0,0,0,0,3.4847,3.487,3.489,3.4921,3.493,3.4942,3.4955,3.4958,3.4976,3.4983,3.4995,3.501,3.503,3.5043,3.5063,3.5096,3.5099,3.511,3.5113,3.5116,3.5118,3.5133,3.5137,3.5092,3.5092,3.5092,0,0,3.486,3.4876,3.4891,3.4923,3.4937,3.4959,3.4948,3.4973,3.4988,3.4986,3.5015,3.5024,3.5041,3.5072,3.5087,3.5081,3.5131,3.5118,3.512,3.5121,3.5136,3.514,3.5143,3.5094,3.5094,3.5093,0,0,3.4896,3.4912,3.4938,3.4951,3.4972,3.4979,3.4985,3.5005,3.5011,3.504,3.5038,3.5055,3.5091,3.5102,3.5113,3.5149,3.5145,3.5155,3.517,3.5184,3.5188,3.5191,3.5201,3.5205,3.5158,3.5158,3.5158,0,3.4909,3.4944,3.4951,3.4975,3.4988,3.4987,3.5012,3.5024,3.505,3.5057,3.5051,3.5093,3.5105,3.5137,3.5145,3.5155,3.516,3.5152,3.5187,3.519,3.5193,3.5203,3.5207,3.5158,3.5158,3.5158,3.5158,0,3.4958,3.4982,3.5,3.5024,3.5039,3.5064,3.5072,3.5086,3.5087,3.5094,3.5122,3.5136,3.5157,3.5165,3.5167,3.5196,3.5191,3.5186,3.5174,3.5198,3.5207,3.5211,3.516,3.5159,3.5159,3.5159,0,0,3.5001,3.5027,3.5034,3.5043,3.5064,3.5082,3.5104,3.5125,3.5135,3.5152,3.5169,3.5198,3.5192,3.5204,3.5206,3.5219,3.5243,3.5212,3.5212,3.5215,3.5272,3.5275,3.5279,3.5241,3.5242,3.5243,3.527,0,3.5036,3.5078,3.5083,3.5119,3.5139,3.5137,3.5156,3.517,3.5176,3.5192,3.5199,3.5218,3.5211,3.5217,3.523,3.5237,3.5254,3.5236,3.5255,3.5255,3.5249,3.5284,3.5288,3.5313,3.5274,3.5275,3.5275,0,3.5083,3.5101,3.5138,3.5153,3.5162,3.5179,3.5197,3.5213,3.5227,3.5231,3.5243,3.5243,3.5264,3.5252,3.5278,3.5266,3.5274,3.5278,3.5279,3.528,3.5266,3.5284,3.5322,3.5325,3.5281,3.5281,3.528,0,3.5107,3.514,3.5166,3.5174,3.5194,3.5205,3.5213,3.5227,3.5238,3.5253,3.5259,3.5276,3.5285,3.5297,3.5301,3.5292,3.5326,3.5315,3.5328,3.5328,3.5334,3.5333,3.5372,3.5343,3.5343,3.5342,3.5342,0,3.5144,3.5166,3.5176,3.5192,3.5215,3.5221,3.5243,3.5251,3.5262,3.5278,3.5277,3.5291,3.5297,3.5311,3.5314,3.5334,3.5338,3.534,3.534,3.5339,3.5339,3.5343,3.5341,3.5343,3.5343,3.5343,3.5343,0,3.5174,3.5182,3.5209,3.5225,3.5229,3.5246,3.5258,3.5271,3.5277,3.5296,3.5301,3.531,3.5326,3.5331,3.5352,3.5353,3.5376,3.5376,3.5371,3.5371,3.5382,3.538,3.5424,3.5428,3.5398,3.5398,3.5398,0,3.5197,3.5213,3.523,3.524,3.5249,3.5266,3.5277,3.5282,3.5293,3.5308,3.532,3.5336,3.5349,3.5375,3.5382,3.5397,3.5395,3.5409,3.5397,3.5395,3.5393,3.5391,3.5391,3.5411,3.5412,3.5412,3.5412,0,3.5234,3.5236,3.5253,3.5269,3.5282,3.5295,3.5308,3.5316,3.5322,3.5334,3.5351,3.5361,3.5381,3.5396,3.5411,3.5417,3.5415,3.5416,3.5419,3.5417,3.5413,3.5413,3.5375,3.5415,3.5414,3.5414,3.5414,3.5414,3.5259,3.5273,3.5286,3.5303,3.5313,3.5324,3.5337,3.5344,3.5358,3.5375,3.5377,3.5394,3.5405,3.5424,3.5431,3.5443,3.5439,3.5444,3.5445,3.5446,3.5446,3.5412,3.5446,3.5446,3.5446,3.5446,3.5446,0,3.5294,3.5302,3.5318,3.5335,3.5348,3.5345,3.5358,3.5369,3.5384,3.5395,3.5408,3.5425,3.544,3.5447,3.5461,3.5469,3.5468,3.5472,3.5471,3.5472,3.545,3.5445,3.5473,3.5473,3.5473,3.5473,3.5473,3.5473,3.5314,3.5336,3.5339,3.5365,3.5372,3.539,3.5397,3.5407,3.5415,3.5435,3.5447,3.5452,3.5461,3.5475,3.5487,3.5488,3.5492,3.5497,3.5498,3.5477,3.5474,3.5471,3.5466,3.5498,3.5498,3.5518,3.5518,3.5518]}]]